Date String (YYYY-MM-DD hh:mm:ss) UTC,Instrument flags,Ambient pressure (hPa),Sample flow (lpm),Bypass flow (lpm),Sample temperature (°C),Ambient temperature (°C),ASC tube jacket temperature (°C),LED temperature (°C),Box temperature (°C),Sample RH (%),Span deviation,Mass concentration (μg/m³),Mass concentration (μg/m³),Mass concentration (μg/m³)
DateTimeUTC,F1_M11,P_M11,Q1_M11,Q2_M11,T1_M11,T2_M11,T3_M11,T4_M11,T5_M11,U1_M11,ZSPAN_M11,X0_M11,X2_M11,X1_M11
2022-01-23 08:00:00,,0830.1,4.99,0.00,22.2,21.5,00.0,31.3,23.9,08.0,0000.0,0001.35,0001.09,0001.02
2022-01-23 08:01:00,,0830.2,5.01,0.00,22.2,21.5,00.0,31.3,23.9,08.2,0000.0,0001.35,0001.07,0001.00
2022-01-23 08:02:00,,0830.1,5.00,0.00,22.2,21.5,00.0,31.3,23.8,08.2,0000.0,0001.33,0001.05,0000.99
2022-01-23 08:03:00,,0830.2,4.99,0.00,22.2,21.7,00.0,31.3,23.9,08.0,0000.0,0001.34,0001.05,0000.97
2022-01-23 08:04:00,,0830.1,5.01,0.00,22.3,22.3,00.0,31.3,24.1,08.1,0000.0,0001.33,0001.03,0000.96
2022-01-23 08:05:00,,0830.1,5.00,0.00,22.4,23.1,00.0,31.4,24.4,08.0,0000.0,0001.32,0001.01,0000.94
2022-01-23 08:06:00,,0830.1,4.99,0.00,22.5,23.1,00.0,31.4,24.5,07.6,0000.0,0001.30,0000.99,0000.92
2022-01-23 08:07:00,,0830.0,5.00,0.00,22.6,22.9,00.0,31.4,24.5,07.5,0000.0,0001.26,0000.96,0000.90
2022-01-23 08:08:00,,0830.1,5.00,0.00,22.6,22.7,00.0,31.4,24.4,07.5,0000.0,0001.24,0000.95,0000.88
2022-01-23 08:09:00,,0830.1,5.01,0.00,22.5,22.5,00.0,31.4,24.3,07.4,0000.0,0001.23,0000.93,0000.87
2022-01-23 08:10:00,,0830.0,4.99,0.00,22.5,22.2,00.0,31.4,24.2,07.7,0000.0,0001.23,0000.93,0000.86
2022-01-23 08:11:00,,0830.0,5.01,0.00,22.4,22.0,00.0,31.4,24.1,08.3,0000.0,0001.22,0000.95,0000.89
2022-01-23 08:12:00,,0830.0,4.99,0.00,22.4,21.9,00.0,31.4,24.1,08.8,0000.0,0001.28,0001.01,0000.94
2022-01-23 08:13:00,,0830.0,5.01,0.00,22.3,21.8,00.0,31.4,24.0,09.0,0000.0,0001.38,0001.13,0001.04
2022-01-23 08:14:00,,0830.0,4.98,0.00,22.3,21.7,00.0,31.4,24.0,09.2,0000.0,0001.61,0001.23,0001.13
2022-01-23 08:15:00,,0830.0,5.01,0.00,22.2,21.6,00.0,31.4,23.9,09.3,0000.0,0002.03,0001.38,0001.24
2022-01-23 08:16:00,,0830.0,5.00,0.00,22.2,21.5,00.0,31.3,23.9,09.3,0000.0,0002.29,0001.52,0001.35
2022-01-23 08:17:00,,0829.9,4.99,0.00,22.2,21.5,00.0,31.3,23.9,09.3,0000.0,0002.74,0001.64,0001.48
2022-01-23 08:18:00,,0829.8,5.01,0.00,22.1,21.4,00.0,31.3,23.8,09.3,0000.0,0003.86,0001.79,0001.60
2022-01-23 08:19:00,,0829.8,4.98,0.00,22.1,21.3,00.0,31.3,23.7,09.3,0000.0,0004.12,0001.93,0001.71
2022-01-23 08:20:00,,0829.8,5.00,0.00,22.1,21.3,00.0,31.3,23.7,09.2,0000.0,0004.27,0002.05,0001.79
2022-01-23 08:21:00,,0829.8,5.00,0.00,22.0,21.2,00.0,31.2,23.6,09.1,0000.0,0004.42,0002.16,0001.89
2022-01-23 08:22:00,,0829.8,5.00,0.00,22.0,21.2,00.0,31.2,23.6,09.1,0000.0,0004.55,0002.24,0001.95
2022-01-23 08:23:00,,0829.9,5.01,0.00,21.9,21.1,00.0,31.2,23.6,09.1,0000.0,0004.61,0002.28,0001.97
2022-01-23 08:24:00,,0829.8,4.99,0.00,21.9,21.2,00.0,31.1,23.6,09.3,0000.0,0004.53,0002.23,0001.96
2022-01-23 08:25:00,,0829.8,5.02,0.00,22.0,21.9,00.0,31.2,23.8,09.4,0000.0,0004.47,0002.22,0001.94
2022-01-23 08:26:00,,0829.9,4.99,0.00,22.1,22.7,00.0,31.2,24.1,09.4,0000.0,0005.00,0002.20,0001.92
2022-01-23 08:27:00,,0829.9,5.00,0.00,22.3,23.1,00.0,31.2,24.3,09.3,0000.0,0005.38,0002.17,0001.91
2022-01-23 08:28:00,,0829.9,5.01,0.00,22.3,22.9,00.0,31.2,24.3,09.3,0000.0,0005.08,0002.13,0001.87
2022-01-23 08:29:00,,0829.8,5.00,0.00,22.4,22.7,00.0,31.3,24.2,09.3,0000.0,0004.03,0002.08,0001.83
2022-01-23 08:30:00,,0829.8,5.00,0.00,22.4,22.5,00.0,31.3,24.2,09.3,0000.0,0003.85,0002.01,0001.80
2022-01-23 08:31:00,,0829.9,4.99,0.00,22.4,22.3,00.0,31.3,24.2,09.3,0000.0,0003.85,0002.01,0001.81
2022-01-23 08:32:00,,0829.9,4.99,0.00,22.4,22.2,00.0,31.3,24.2,09.3,0000.0,0003.79,0001.98,0001.80
2022-01-23 08:33:00,,0829.9,5.01,0.00,22.4,22.1,00.0,31.3,24.2,09.3,0000.0,0003.78,0001.98,0001.80
2022-01-23 08:34:00,,0829.9,5.00,0.00,22.4,22.1,00.0,31.3,24.1,09.4,0000.0,0003.74,0001.98,0001.82
2022-01-23 08:35:00,,0829.9,5.00,0.00,22.4,22.0,00.0,31.3,24.1,09.3,0000.0,0003.78,0001.99,0001.82
2022-01-23 08:36:00,,0829.9,5.00,0.00,22.4,22.0,00.0,31.3,24.1,09.3,0000.0,0003.83,0002.00,0001.84
2022-01-23 08:37:00,,0829.9,4.99,0.00,22.4,21.9,00.0,31.3,24.1,09.3,0000.0,0003.01,0001.98,0001.84
2022-01-23 08:38:00,,0829.9,5.00,0.00,22.3,21.9,00.0,31.3,24.1,09.3,0000.0,0002.50,0001.98,0001.83
2022-01-23 08:39:00,,0829.8,5.00,0.00,22.3,21.8,00.0,31.3,24.1,09.3,0000.0,0002.58,0002.02,0001.84
2022-01-23 08:40:00,,0829.8,4.99,0.00,22.3,21.8,00.0,31.3,24.1,09.1,0000.0,0002.53,0002.01,0001.85
2022-01-23 08:41:00,,0829.8,5.02,0.00,22.3,21.8,00.0,31.3,24.1,09.0,0000.0,0002.55,0002.00,0001.83
2022-01-23 08:42:00,,0829.7,4.98,0.00,22.3,21.8,00.0,31.3,24.1,09.0,0000.0,0002.50,0001.97,0001.80
2022-01-23 08:43:00,,0829.7,5.01,0.00,22.3,21.8,00.0,31.3,24.1,09.0,0000.0,0003.00,0001.96,0001.79
2022-01-23 08:44:00,,0829.8,4.99,0.00,22.3,21.7,00.0,31.3,24.1,09.0,0000.0,0003.12,0001.92,0001.77
2022-01-23 08:45:00,,0829.8,5.00,0.00,22.3,21.7,00.0,31.3,24.1,08.9,0000.0,0003.13,0001.91,0001.75
2022-01-23 08:46:00,,0829.8,4.99,0.00,22.3,21.7,00.0,31.3,24.1,08.3,0000.0,0003.09,0001.84,0001.69
2022-01-23 08:47:00,,0829.8,5.01,0.00,22.3,21.7,00.0,31.3,24.1,08.3,0000.0,0002.93,0001.76,0001.61
2022-01-23 08:48:00,,0829.8,4.99,0.00,22.3,21.7,00.0,31.3,24.0,08.8,0000.0,0002.89,0001.74,0001.56
2022-01-23 08:49:00,,0829.8,4.99,0.00,22.3,21.7,00.0,31.3,24.0,09.0,0000.0,0002.86,0001.71,0001.54
2022-01-23 08:50:00,,0829.8,5.02,0.00,22.3,21.7,00.0,31.3,24.0,09.0,0000.0,0002.86,0001.68,0001.51
2022-01-23 08:51:00,,0829.8,4.99,0.00,22.3,21.6,00.0,31.3,24.0,09.1,0000.0,0002.95,0001.67,0001.50
2022-01-23 08:52:00,,0829.8,4.99,0.00,22.3,21.6,00.0,31.3,24.0,09.0,0000.0,0003.03,0001.67,0001.50
2022-01-23 08:53:00,,0829.8,5.01,0.00,22.2,21.6,00.0,31.3,24.0,09.0,0000.0,0003.04,0001.67,0001.49
2022-01-23 08:54:00,,0829.8,4.99,0.00,22.2,21.6,00.0,31.3,24.0,08.9,0000.0,0002.53,0001.66,0001.48
2022-01-23 08:55:00,,0829.8,4.99,0.00,22.2,21.7,00.0,31.3,24.0,08.9,0000.0,0002.42,0001.67,0001.46
2022-01-23 08:56:00,,0829.8,5.01,0.00,22.3,22.3,00.0,31.3,24.2,08.8,0000.0,0002.41,0001.66,0001.45
2022-01-23 08:57:00,,0829.8,4.99,0.00,22.4,23.0,00.0,31.3,24.4,08.5,0000.0,0002.32,0001.65,0001.45
2022-01-23 08:58:00,,0829.8,5.00,0.00,22.6,23.3,00.0,31.3,24.6,08.4,0000.0,0002.29,0001.64,0001.45
2022-01-23 08:59:00,,0829.8,5.00,0.00,22.6,23.1,00.0,31.4,24.6,08.3,0000.0,0002.24,0001.59,0001.43
